TimeCST,TemperatureF,Dew PointF,Humidity,Sea Level PressureIn,VisibilityMPH,Wind Direction,Wind SpeedMPH,Gust SpeedMPH,PrecipitationIn,Events,Conditions,WindDirDegrees,DateUTC
12:15 AM,33.8,33.8,100,30.36,10.0,Calm,Calm,-,N/A,,Clear,0,2013-11-08 06:15:00
12:35 AM,33.8,33.8,100,30.36,10.0,Calm,Calm,-,N/A,,Clear,0,2013-11-08 06:35:00
12:55 AM,33.8,33.8,100,30.36,10.0,Calm,Calm,-,N/A,,Clear,0,2013-11-08 06:55:00
1:15 AM,33.8,33.8,100,30.36,10.0,Calm,Calm,-,N/A,,Clear,0,2013-11-08 07:15:00
1:35 AM,33.8,33.8,100,30.36,10.0,Calm,Calm,-,N/A,,Clear,0,2013-11-08 07:35:00
1:55 AM,33.8,33.8,100,30.35,10.0,Calm,Calm,-,N/A,,Clear,0,2013-11-08 07:55:00
2:15 AM,33.8,33.8,100,30.35,10.0,Calm,Calm,-,N/A,,Clear,0,2013-11-08 08:15:00
2:35 AM,33.8,33.8,100,30.34,10.0,Calm,Calm,-,N/A,,Clear,0,2013-11-08 08:35:00
2:55 AM,33.8,33.8,100,30.34,10.0,Calm,Calm,-,N/A,,Clear,0,2013-11-08 08:55:00
3:15 AM,32.0,32.0,100,30.34,10.0,Calm,Calm,-,N/A,,Clear,0,2013-11-08 09:15:00
3:35 AM,32.0,32.0,100,30.34,10.0,Calm,Calm,-,N/A,,Clear,0,2013-11-08 09:35:00
3:55 AM,32.0,32.0,100,30.34,10.0,Calm,Calm,-,N/A,,Clear,0,2013-11-08 09:55:00
4:15 AM,32.0,32.0,100,30.34,10.0,Calm,Calm,-,N/A,,Clear,0,2013-11-08 10:15:00
4:35 AM,32.0,32.0,100,30.33,10.0,Calm,Calm,-,N/A,,Clear,0,2013-11-08 10:35:00
4:55 AM,32.0,32.0,100,30.33,10.0,Calm,Calm,-,N/A,,Clear,0,2013-11-08 10:55:00
5:15 AM,32.0,32.0,100,30.33,10.0,Calm,Calm,-,N/A,,Clear,0,2013-11-08 11:15:00
5:35 AM,32.0,32.0,100,30.33,10.0,Calm,Calm,-,N/A,,Clear,0,2013-11-08 11:35:00
5:55 AM,32.0,32.0,100,30.32,10.0,Calm,Calm,-,N/A,,Clear,0,2013-11-08 11:55:00
6:15 AM,32.0,32.0,100,30.32,10.0,Calm,Calm,-,N/A,,Clear,0,2013-11-08 12:15:00
6:35 AM,32.0,32.0,100,30.32,10.0,Calm,Calm,-,N/A,,Clear,0,2013-11-08 12:35:00
6:55 AM,33.8,33.8,100,30.32,10.0,Calm,Calm,-,N/A,,Clear,0,2013-11-08 12:55:00
7:15 AM,33.8,33.8,100,30.32,10.0,Calm,Calm,-,N/A,,Clear,0,2013-11-08 13:15:00
7:35 AM,35.6,35.6,100,30.32,10.0,East,3.5,-,N/A,,Clear,100,2013-11-08 13:35:00
7:55 AM,37.4,37.4,100,30.32,10.0,Calm,Calm,-,N/A,,Clear,0,2013-11-08 13:55:00
8:15 AM,41.0,41.0,100,30.32,10.0,Calm,Calm,-,N/A,,Clear,0,2013-11-08 14:15:00
8:35 AM,44.6,41.0,87,30.32,10.0,SE,3.5,-,N/A,,Clear,140,2013-11-08 14:35:00
8:55 AM,46.4,41.0,81,30.31,10.0,Calm,Calm,-,N/A,,Clear,0,2013-11-08 14:55:00
9:15 AM,50.0,41.0,71,30.31,10.0,SSE,5.8,-,N/A,,Clear,150,2013-11-08 15:15:00
9:35 AM,50.0,41.0,71,30.31,10.0,SSE,4.6,-,N/A,,Clear,160,2013-11-08 15:35:00
9:55 AM,53.6,41.0,62,30.31,10.0,SSE,8.1,-,N/A,,Clear,160,2013-11-08 15:55:00
10:15 AM,55.4,39.2,54,30.30,10.0,SSE,6.9,-,N/A,,Clear,160,2013-11-08 16:15:00
10:35 AM,57.2,41.0,55,30.29,10.0,South,8.1,-,N/A,,Clear,170,2013-11-08 16:35:00
10:55 AM,59.0,39.2,48,30.28,10.0,South,9.2,18.4,N/A,,Clear,180,2013-11-08 16:55:00
11:15 AM,60.8,39.2,45,30.27,10.0,South,10.4,19.6,N/A,,Clear,190,2013-11-08 17:15:00
11:35 AM,60.8,37.4,42,30.27,10.0,South,11.5,19.6,N/A,,Clear,170,2013-11-08 17:35:00
11:55 AM,60.8,37.4,42,30.25,10.0,South,12.7,19.6,N/A,,Clear,170,2013-11-08 17:55:00
12:15 PM,62.6,35.6,37,30.24,10.0,South,16.1,25.3,N/A,,Clear,180,2013-11-08 18:15:00
12:35 PM,62.6,37.4,39,30.22,10.0,South,11.5,23.0,N/A,,Clear,170,2013-11-08 18:35:00
12:55 PM,62.6,37.4,39,30.21,10.0,South,11.5,18.4,N/A,,Clear,190,2013-11-08 18:55:00
1:15 PM,62.6,39.2,42,30.20,10.0,South,9.2,19.6,N/A,,Clear,180,2013-11-08 19:15:00
1:35 PM,64.4,39.2,40,30.19,10.0,South,12.7,21.9,N/A,,Clear,170,2013-11-08 19:35:00
1:55 PM,64.4,37.4,37,30.18,10.0,South,18.4,24.2,N/A,,Clear,190,2013-11-08 19:55:00
2:15 PM,62.6,37.4,39,30.16,10.0,South,13.8,19.6,N/A,,Clear,170,2013-11-08 20:15:00
2:35 PM,62.6,37.4,39,30.16,10.0,South,15.0,21.9,N/A,,Clear,170,2013-11-08 20:35:00
2:55 PM,64.4,35.6,34,30.15,10.0,South,10.4,23.0,N/A,,Clear,170,2013-11-08 20:55:00
3:15 PM,62.6,37.4,39,30.15,10.0,South,13.8,18.4,N/A,,Clear,170,2013-11-08 21:15:00
3:35 PM,62.6,33.8,34,30.14,10.0,South,13.8,23.0,N/A,,Clear,180,2013-11-08 21:35:00
3:55 PM,62.6,35.6,37,30.14,10.0,South,11.5,19.6,N/A,,Clear,180,2013-11-08 21:55:00
4:15 PM,60.8,35.6,39,30.13,10.0,South,11.5,17.3,N/A,,Clear,190,2013-11-08 22:15:00
4:35 PM,60.8,33.8,36,30.13,10.0,South,16.1,-,N/A,,Clear,190,2013-11-08 22:35:00
4:55 PM,59.0,33.8,39,30.13,10.0,South,8.1,19.6,N/A,,Clear,180,2013-11-08 22:55:00
5:15 PM,59.0,35.6,42,30.12,10.0,South,6.9,-,N/A,,Clear,180,2013-11-08 23:15:00
5:35 PM,55.4,35.6,47,30.11,10.0,South,6.9,-,N/A,,Clear,170,2013-11-08 23:35:00
5:55 PM,55.4,37.4,51,30.11,10.0,South,10.4,-,N/A,,Clear,190,2013-11-08 23:55:00
6:15 PM,55.4,37.4,51,30.11,10.0,South,8.1,-,N/A,,Clear,180,2013-11-09 00:15:00
6:35 PM,55.4,37.4,51,30.11,10.0,South,9.2,-,N/A,,Clear,170,2013-11-09 00:35:00
6:55 PM,53.6,37.4,54,30.12,10.0,South,5.8,-,N/A,,Clear,170,2013-11-09 00:55:00
7:15 PM,53.6,37.4,54,30.12,10.0,South,10.4,-,N/A,,Clear,170,2013-11-09 01:15:00
7:35 PM,53.6,37.4,54,30.11,10.0,South,9.2,-,N/A,,Clear,170,2013-11-09 01:35:00
7:55 PM,53.6,37.4,54,30.11,10.0,South,10.4,17.3,N/A,,Clear,170,2013-11-09 01:55:00
8:15 PM,53.6,39.2,58,30.11,10.0,South,11.5,18.4,N/A,,Clear,180,2013-11-09 02:15:00
8:35 PM,53.6,39.2,58,30.12,10.0,South,10.4,17.3,N/A,,Clear,170,2013-11-09 02:35:00
8:55 PM,53.6,39.2,58,30.12,10.0,South,9.2,16.1,N/A,,Clear,170,2013-11-09 02:55:00
9:15 PM,51.8,39.2,62,30.12,10.0,South,10.4,-,N/A,,Clear,170,2013-11-09 03:15:00
9:35 PM,51.8,39.2,62,30.13,10.0,South,9.2,16.1,N/A,,Clear,180,2013-11-09 03:35:00
9:55 PM,51.8,39.2,62,30.14,10.0,South,5.8,-,N/A,,Clear,180,2013-11-09 03:55:00
10:15 PM,51.8,41.0,67,30.14,10.0,South,4.6,-,N/A,,Clear,180,2013-11-09 04:15:00
10:35 PM,50.0,39.2,66,30.14,10.0,South,3.5,-,N/A,,Clear,180,2013-11-09 04:35:00
10:55 PM,50.0,39.2,66,30.15,10.0,Calm,Calm,-,N/A,,Clear,0,2013-11-09 04:55:00
11:15 PM,46.4,39.2,76,30.16,10.0,Calm,Calm,-,N/A,,Clear,0,2013-11-09 05:15:00
11:35 PM,46.4,39.2,76,30.15,10.0,Calm,Calm,-,N/A,,Clear,0,2013-11-09 05:35:00
11:55 PM,46.4,39.2,76,30.15,10.0,Calm,Calm,-,N/A,,Clear,0,2013-11-09 05:55:00